Weather History for Jasper, TX

Change the Weather History Date:

Friday, July 5, 2013

  Actual Average (KLFK) Record (KLFK)
Temperature  
Mean Temperature 81 °F 82 °F  
Max Temperature 94 °F 92 °F 102 °F (1939)
Min Temperature 68 °F 72 °F 56 °F (1907)
Degree Days  
Heating Degree Days 0 0  
Month to date heating degree days 0  
Since 1 June heating degree days 0  
Since 1 July heating degree days 0  
Cooling Degree Days 16 17  
Month to date cooling degree days 85  
Year to date cooling degree days 1006  
Since 1 June cooling degree days 537  
Growing Degree Days 31 (Base 50)    
Moisture  
Dew Point 64 °F    
Average Humidity 61    
Maximum Humidity 89    
Minimum Humidity 26    
Precipitation  
Precipitation 0.00 in 0.12 in 1.76 in (1981)
Month to date precipitation 0.62  
Year to date precipitation 24.82  
Snow  
Snow 0.00 in - - ()
Month to date snowfall  
Since 1 June snowfall  
Since 1 July snowfall  
Snow Depth -    
Sea Level Pressure  
Sea Level Pressure 29.98 in    
Wind  
Wind Speed 2 mph (East)    
Max Wind Speed 9 mph    
Max Gust Speed 18 mph    
Visibility 9 miles    
Events      
T = Trace of Precipitation, MM = Missing Value Source: NWS Daily Summary

Daily Weather History Graph

Daily Weather History Graph

Search for Another Location

Airport:

Trip Planner

Search our weather history database for the weather conditions in past years. The results will help you decide how hot, cold, wet, or windy it might be!

Date:

Astronomy

Jul. 05, 2013 Rise Set
Actual Time 6:18 AM CDT 8:23 PM CDT
Civil Twilight 5:50 AM CDT 8:50 PM CDT
Nautical Twilight 5:17 AM CDT 9:24 PM CDT
Astronomical Twilight 4:41 AM CDT 10:00 PM CDT
Moon 4:14 AM CDT (7/5) 6:21 PM CDT (7/5)
Length of Visible Light 14h 59m
Length of Day
14h 04m
Waning Crescent, 6% of the Moon is Illuminated
Jul 5
Waning Crescent
Jul 8
New
Jul 15
First Quarter
Jul 22
Full
Jul 29
Last Quarter

Hourly Weather History & Observations

Time (CDT) Temp. Heat Index Dew Point Humidity Pressure Visibility Wind Dir Wind Speed Gust Speed Precip Events Conditions
12:15 AM 71.4 °F - 66.4 °F 84% 30.01 in 7.0 mi Calm Calm - N/A   Clear
12:35 AM 71.6 °F - 66.4 °F 84% 30.01 in 7.0 mi Calm Calm - N/A   Clear
12:55 AM 71.2 °F - 66.4 °F 85% 30.00 in 7.0 mi Calm Calm - N/A   Clear
1:15 AM 70.3 °F - 66.2 °F 87% 30.00 in 7.0 mi Calm Calm - N/A   Clear
1:35 AM 71.2 °F - 66.0 °F 84% 30.00 in 7.0 mi Calm Calm - N/A   Clear
1:55 AM 70.3 °F - 66.2 °F 87% 30.00 in 7.0 mi Calm Calm - N/A   Clear
2:15 AM 70.3 °F - 66.0 °F 86% 29.99 in 7.0 mi East 3.5 mph - N/A   Clear
2:35 AM 70.7 °F - 66.0 °F 85% 29.99 in 7.0 mi Calm Calm - N/A   Clear
2:55 AM 69.8 °F - 65.8 °F 87% 29.98 in 7.0 mi Calm Calm - N/A   Clear
3:15 AM 68.9 °F - 65.1 °F 88% 29.98 in 7.0 mi Calm Calm - N/A   Clear
3:35 AM 69.1 °F - 65.1 °F 87% 29.98 in 7.0 mi Calm Calm - N/A   Clear
3:55 AM 68.5 °F - 65.1 °F 89% 29.98 in 7.0 mi Calm Calm - N/A   Clear
4:15 AM 68.2 °F - 64.8 °F 89% 29.98 in 7.0 mi Calm Calm - N/A   Clear
4:35 AM 68.2 °F - 64.4 °F 88% 29.98 in 7.0 mi NE 3.5 mph - N/A   Clear
4:55 AM 68.5 °F - 64.2 °F 86% 29.98 in 7.0 mi ENE 3.5 mph - N/A   Clear
5:15 AM 70.0 °F - 64.2 °F 82% 29.98 in 10.0 mi ENE 3.5 mph - N/A   Clear
5:35 AM 70.0 °F - 64.4 °F 82% 29.99 in 10.0 mi Calm Calm - N/A   Clear
5:55 AM 69.6 °F - 64.2 °F 83% 30.00 in 10.0 mi Calm Calm - N/A   Clear
6:15 AM 70.0 °F - 64.0 °F 81% 30.00 in 10.0 mi East 3.5 mph - N/A   Clear
6:35 AM 69.8 °F - 64.4 °F 83% 30.00 in 7.0 mi Calm Calm - N/A   Clear
6:55 AM 70.0 °F - 64.4 °F 82% 30.01 in 7.0 mi East 3.5 mph - N/A   Clear
7:15 AM 71.1 °F - 64.8 °F 80% 30.01 in 7.0 mi Calm Calm - N/A   Clear
7:35 AM 72.1 °F - 65.3 °F 79% 30.01 in 7.0 mi Calm Calm - N/A   Clear
7:55 AM 73.8 °F - 65.8 °F 76% 30.01 in 10.0 mi East 3.5 mph - N/A   Clear
8:15 AM 75.6 °F - 66.0 °F 72% 30.02 in 10.0 mi East 4.6 mph - N/A   Clear
8:35 AM 77.4 °F - 66.4 °F 69% 30.02 in 10.0 mi ENE 3.5 mph - N/A   Clear
8:55 AM 79.3 °F - 67.3 °F 66% 30.01 in 10.0 mi ENE 3.5 mph - N/A   Clear
9:35 AM 83.3 °F 86.4 °F 68.0 °F 60% 30.01 in 10.0 mi East 3.5 mph - N/A   Clear
9:55 AM 84.4 °F 88.2 °F 69.1 °F 60% 30.01 in 10.0 mi Calm Calm - N/A   Clear
10:15 AM 85.6 °F 89.7 °F 69.3 °F 58% 30.01 in 10.0 mi Calm Calm - N/A   Clear
10:35 AM 86.5 °F 90.0 °F 68.4 °F 54% 30.02 in 10.0 mi ENE 3.5 mph - N/A   Clear
10:55 AM 87.6 °F 90.1 °F 66.4 °F 49% 30.02 in 10.0 mi ENE 6.9 mph - N/A   Clear
11:15 AM 88.9 °F 90.7 °F 64.8 °F 45% 30.02 in 10.0 mi NE 6.9 mph - N/A   Clear
11:35 AM 89.2 °F 90.9 °F 64.6 °F 44% 30.02 in 10.0 mi Calm Calm - N/A   Clear
11:55 AM 90.1 °F 92.0 °F 65.1 °F 43% 30.01 in 10.0 mi East 5.8 mph - N/A   Clear
12:15 PM 90.5 °F 92.2 °F 64.6 °F 42% 30.01 in 10.0 mi East 5.8 mph - N/A   Scattered Clouds
12:35 PM 91.2 °F 92.9 °F 64.2 °F 41% 30.01 in 10.0 mi East 3.5 mph - N/A   Scattered Clouds
12:55 PM 92.5 °F 93.7 °F 63.5 °F 38% 30.01 in 7.0 mi NE 6.9 mph - N/A   Clear
1:15 PM 92.8 °F 93.5 °F 62.6 °F 36% 30.00 in 10.0 mi East 6.9 mph - N/A   Clear
1:35 PM 93.0 °F 93.4 °F 61.5 °F 35% 30.00 in 10.0 mi East 5.8 mph 17.3 mph N/A   Scattered Clouds
1:55 PM 93.0 °F 92.7 °F 60.3 °F 33% 30.00 in 10.0 mi ENE 8.1 mph 18.4 mph N/A   Scattered Clouds
2:15 PM 93.0 °F 92.3 °F 59.4 °F 32% 29.98 in 10.0 mi East 6.9 mph - N/A   Scattered Clouds
2:35 PM 94.1 °F 93.9 °F 60.4 °F 32% 29.97 in 10.0 mi NE 5.8 mph - N/A   Scattered Clouds
2:55 PM 93.0 °F 93.0 °F 61.2 °F 34% 29.97 in 10.0 mi ENE 6.9 mph - N/A   Mostly Cloudy
3:15 PM 93.0 °F 92.7 °F 59.9 °F 33% 29.96 in 10.0 mi East 6.9 mph - N/A   Scattered Clouds
3:35 PM 93.6 °F 93.4 °F 60.1 °F 33% 29.96 in 10.0 mi East 4.6 mph - N/A   Scattered Clouds
3:55 PM 93.9 °F 93.6 °F 59.7 °F 32% 29.94 in 10.0 mi ENE 4.6 mph - N/A   Clear
4:15 PM 94.6 °F 94.3 °F 59.9 °F 31% 29.94 in 10.0 mi East 9.2 mph - N/A   Clear
4:35 PM 94.3 °F 93.4 °F 58.8 °F 30% 29.93 in 10.0 mi NNE 5.8 mph - N/A   Clear
4:55 PM 93.7 °F 93.0 °F 58.5 °F 31% 29.93 in 10.0 mi NE 6.9 mph - N/A   Scattered Clouds
5:15 PM 93.4 °F 92.2 °F 57.7 °F 30% 29.93 in 10.0 mi ENE 5.8 mph - N/A   Clear
5:35 PM 94.3 °F 92.7 °F 56.7 °F 28% 29.92 in 10.0 mi East 5.8 mph - N/A   Clear
5:55 PM 94.3 °F 92.4 °F 55.8 °F 27% 29.92 in 10.0 mi East 4.6 mph - N/A   Clear
6:15 PM 93.7 °F 91.4 °F 54.5 °F 26% 29.92 in 10.0 mi East 6.9 mph - N/A   Clear
6:35 PM 93.2 °F 91.0 °F 54.9 °F 27% 29.92 in 10.0 mi ENE 5.8 mph - N/A   Clear
6:55 PM 92.7 °F 90.9 °F 56.1 °F 29% 29.92 in 10.0 mi East 4.6 mph - N/A   Clear
7:15 PM 91.2 °F 90.2 °F 58.6 °F 33% 29.92 in 10.0 mi ESE 5.8 mph - N/A   Clear
7:35 PM 89.6 °F 88.9 °F 59.5 °F 36% 29.93 in 10.0 mi East 3.5 mph - N/A   Clear
7:55 PM 88.2 °F 88.1 °F 60.8 °F 40% 29.93 in 10.0 mi SSE 5.8 mph - N/A   Clear
8:15 PM 85.8 °F 89.1 °F 67.8 °F 55% 29.94 in 10.0 mi ESE 3.5 mph - N/A   Clear
8:35 PM 84.0 °F 87.8 °F 69.4 °F 61% 29.95 in 10.0 mi SE 3.5 mph - N/A   Clear
8:55 PM 82.9 °F 86.7 °F 69.8 °F 64% 29.95 in 10.0 mi Calm Calm - N/A   Clear
9:15 PM 81.9 °F 85.6 °F 70.0 °F 67% 29.96 in 10.0 mi ESE 3.5 mph - N/A   Clear
9:35 PM 81.0 °F 84.6 °F 70.2 °F 70% 29.97 in 10.0 mi East 4.6 mph - N/A   Clear
9:55 PM 80.1 °F 83.3 °F 70.2 °F 72% 29.97 in 10.0 mi East 3.5 mph - N/A   Clear
10:15 PM 79.5 °F - 70.3 °F 73% 29.98 in 10.0 mi East 5.8 mph - N/A   Clear
10:35 PM 79.0 °F - 70.7 °F 76% 29.99 in 10.0 mi East 3.5 mph - N/A   Clear
10:55 PM 77.9 °F - 70.9 °F 79% 29.99 in 10.0 mi ENE 3.5 mph - N/A   Clear
11:15 PM 77.0 °F - 70.9 °F 81% 29.99 in 10.0 mi ENE 3.5 mph - N/A   Clear
11:35 PM 76.3 °F - 71.1 °F 84% 29.99 in 10.0 mi Calm Calm - N/A   Clear
11:55 PM 75.7 °F - 70.9 °F 85% 29.98 in 10.0 mi Calm Calm - N/A   Clear